EW9305 Weather Reports


time (UTC)temp
F
wind
direction
speed
knots
gust
knots
rain 1hr
in
rain 24hr
in
rain mn
in
humidity
%
barometer
mb
20201125235128 57 45 0.0 0.0 0.00 0.12 0.05 52 1019.6
20201125234124 59 45 0.0 0.0 0.00 0.12 0.05 43 1019.7
20201125233222 61 45 0.0 0.0 0.00 0.12 0.05 38 1019.6
20201125233125 61 45 0.0 0.0 0.00 0.12 0.05 38 1019.5
20201125233029 61 45 0.0 0.0 0.00 0.12 0.05 38 1019.5
20201125232926 62 45 0.0 0.0 0.00 0.12 0.05 37 1019.6
20201125231922 63 45 0.0 0.0 0.00 0.12 0.05 35 1019.6
20201125231822 63 45 0.0 0.0 0.00 0.12 0.05 35 1019.6
20201125231723 63 45 0.0 0.0 0.00 0.12 0.05 35 1019.6
20201125230722 64 45 0.0 0.0 0.01 0.12 0.05 32 1019.6
20201125230626 64 45 0.0 0.0 0.01 0.12 0.05 32 1019.5
20201125230523 64 45 0.0 0.0 0.01 0.12 0.05 32 1019.5
20201125225522 64 45 0.0 0.9 0.01 0.12 0.05 31 1019.5
20201125225422 64 45 0.0 1.7 0.01 0.12 0.05 31 1019.5
20201125225323 64 45 0.9 1.7 0.01 0.12 0.05 31 1019.5
20201125224323 66 45 0.9 1.7 0.01 0.12 0.05 30 1019.5
20201125223322 67 22 0.0 0.0 0.01 0.12 0.05 28 1019.6
20201125222322 68 360 0.9 0.9 0.01 0.12 0.05 28 1019.6
20201125222223 68 360 0.0 0.9 0.01 0.12 0.05 29 1019.5
20201125221325 68 360 2.6 2.6 0.01 0.12 0.05 29 1019.5
20201125221224 68 360 2.6 3.5 0.01 0.12 0.05 29 1019.6
20201125220222 68 22 0.0 0.0 0.00 0.11 0.04 28 1019.6
20201125220127 68 22 0.0 0.0 0.00 0.11 0.04 29 1019.5
20201125220031 67 22 0.0 0.0 0.00 0.11 0.04 28 1019.6
20201125215023 67 22 0.0 0.0 0.00 0.11 0.04 28 1019.5
20201125214040 66 337 0.9 0.9 0.00 0.11 0.04 28 1019.5
20201125213025 67 360 1.7 4.3 0.00 0.11 0.04 29 1019.7
20201125212031 65 341 1.7 3.5 0.00 0.11 0.04 29 1019.7
20201125211030 64 337 0.0 1.7 0.00 0.11 0.04 30 1019.7
20201125210122 63 270 0.9 1.7 0.00 0.11 0.04 30 1019.9
20201125210041 63 270 0.9 1.7 0.00 0.11 0.04 31 1019.7
20201125205045 64 315 2.6 2.6 0.00 0.11 0.04 31 1019.9
20201125204125 65 360 3.5 5.2 0.00 0.11 0.04 31 1019.9
20201125203126 63 327 0.0 1.7 0.00 0.11 0.04 33 1020.0
20201125202225 62 337 1.7 3.5 0.00 0.11 0.04 33 1020.2
20201125201223 62 291 1.7 3.5 0.00 0.11 0.04 32 1020.2
20201125200228 62 339 5.2 7.0 0.00 0.11 0.04 34 1020.2
20201125200126 62 352 0.9 2.6 0.00 0.11 0.04 34 1020.3
20201125200047 61 360 1.7 2.6 0.00 0.11 0.04 34 1020.3
20201125195023 61 287 5.2 6.1 0.00 0.11 0.04 33 1020.5
20201125194923 61 270 6.1 7.0 0.00 0.11 0.04 34 1020.5
20201125194825 61 270 5.2 6.1 0.00 0.11 0.04 35 1020.4
20201125193922 60 337 4.3 5.2 0.00 0.11 0.04 35 1020.7
20201125192925 60 334 3.5 5.2 0.00 0.11 0.04 35 1020.8
20201125191923 59 247 5.2 6.1 0.00 0.11 0.04 36 1021.0
20201125191824 59 244 5.2 7.0 0.00 0.11 0.04 35 1021.0
20201125190923 59 266 2.6 4.3 0.00 0.11 0.04 37 1021.1
20201125185924 59 304 4.3 5.2 0.00 0.11 0.04 36 1021.3
20201125184928 58 318 5.2 6.1 0.00 0.11 0.04 38 1021.4
20201125183926 58 283 4.3 6.1 0.00 0.11 0.04 40 1021.6
20201125182930 58 312 6.1 7.0 0.00 0.12 0.04 41 1021.8
20201125181924 57 277 5.2 7.0 0.00 0.12 0.04 41 1021.8
20201125180923 57 296 7.0 7.8 0.00 0.12 0.04 41 1022.1
20201125180823 57 291 6.1 8.7 0.00 0.12 0.04 42 1022.1
20201125175825 56 289 4.3 5.2 0.00 0.12 0.04 42 1022.4
20201125174924 56 315 6.1 7.0 0.00 0.12 0.04 44 1022.5
20201125174824 56 294 6.1 7.8 0.00 0.12 0.04 44 1022.5
20201125174725 56 272 6.1 8.7 0.00 0.12 0.04 45 1022.6
20201125173722 55 292 5.2 7.0 0.00 0.12 0.04 47 1022.6
20201125172722 55 299 3.5 4.3 0.00 0.12 0.04 48 1022.8
20201125171724 54 300 7.8 9.6 0.00 0.12 0.04 50 1022.8
20201125170725 54 322 7.0 8.7 0.00 0.12 0.04 50 1022.7
20201125170621 54 329 7.8 9.6 0.00 0.12 0.04 50 1022.8
20201125170528 54 315 6.1 7.0 0.00 0.12 0.04 49 1022.8
20201125165529 53 305 7.8 9.6 0.00 0.12 0.04 50 1022.9
20201125164526 53 283 7.8 9.6 0.00 0.12 0.04 51 1022.9
20201125163524 53 317 9.6 11.3 0.00 0.12 0.04 52 1022.8
20201125162523 52 292 7.0 8.7 0.01 0.12 0.04 51 1022.9
20201125162421 52 290 7.0 8.7 0.01 0.12 0.04 52 1022.9
20201125161424 52 301 7.8 10.4 0.01 0.12 0.04 53 1022.9
20201125160424 52 308 9.6 13.0 0.01 0.12 0.04 54 1022.7
20201125155434 52 283 9.6 12.2 0.01 0.12 0.04 55 1022.7
20201125154524 51 303 9.6 12.2 0.01 0.12 0.04 57 1022.6
20201125153526 51 279 8.7 10.4 0.01 0.12 0.04 57 1022.6
20201125152539 51 290 7.8 9.6 0.00 0.11 0.03 58 1022.5
20201125152424 51 285 9.6 13.0 0.00 0.11 0.03 58 1022.5
20201125151422 50 282 9.6 13.0 0.00 0.11 0.03 59 1022.4
20201125150422 50 285 7.8 11.3 0.00 0.11 0.03 61 1022.0
20201125145424 49 271 10.4 13.0 0.00 0.11 0.03 62 1021.9
20201125144424 49 286 8.7 10.4 0.00 0.11 0.03 63 1021.9
20201125144323 49 270 8.7 9.6 0.00 0.11 0.03 63 1021.9
20201125144224 49 270 9.6 12.2 0.00 0.11 0.03 62 1021.9
20201125143223 49 270 8.7 9.6 0.00 0.11 0.03 64 1021.6
20201125143126 49 274 9.6 12.2 0.00 0.11 0.03 64 1021.6
20201125143028 49 275 8.7 12.2 0.00 0.11 0.03 63 1021.6
20201125142028 49 277 7.8 11.3 0.00 0.11 0.03 64 1021.6
20201125141047 48 282 7.0 7.8 0.01 0.11 0.03 66 1021.3
20201125140121 48 288 7.0 9.6 0.01 0.11 0.03 67 1021.2
20201125140038 48 279 6.1 10.4 0.01 0.11 0.03 68 1021.2
20201125135124 47 277 6.1 7.0 0.01 0.11 0.03 70 1021.0
20201125134222 46 304 6.1 8.7 0.01 0.11 0.03 73 1020.8
20201125134138 46 271 5.2 7.0 0.01 0.11 0.03 73 1020.8
20201125133227 46 270 2.6 3.5 0.01 0.11 0.03 73 1020.6
20201125132228 46 296 2.6 3.5 0.01 0.11 0.03 75 1020.4
20201125131321 46 296 3.5 6.1 0.00 0.10 0.02 75 1020.3
20201125130322 46 294 4.3 6.1 0.00 0.10 0.02 76 1020.0
20201125130223 46 311 3.5 5.2 0.00 0.10 0.02 76 1020.1
20201125125323 46 289 4.3 7.0 0.00 0.10 0.02 75 1020.2
20201125124324 46 295 6.1 7.0 0.00 0.10 0.02 76 1019.9
20201125124221 46 280 5.2 7.0 0.00 0.10 0.02 75 1019.9
20201125123226 46 275 6.1 7.0 0.00 0.10 0.02 75 1019.8
20201125122222 46 280 5.2 7.0 0.00 0.10 0.02 75 1019.9
20201125121222 46 270 5.2 7.0 0.00 0.10 0.02 75 1019.7
20201125120222 46 272 7.8 8.7 0.00 0.10 0.02 75 1019.6
20201125115225 46 270 7.0 7.8 0.00 0.10 0.02 75 1019.6
20201125114330 46 279 7.0 9.6 0.00 0.10 0.02 75 1019.4
20201125114237 46 273 7.8 9.6 0.00 0.10 0.02 75 1019.3
20201125113325 46 270 8.7 10.4 0.00 0.11 0.02 74 1019.2
20201125112323 46 275 8.7 12.2 0.00 0.11 0.02 75 1019.2
20201125111324 46 272 8.7 11.3 0.00 0.11 0.02 75 1018.9
20201125111223 46 274 8.7 12.2 0.00 0.11 0.02 75 1019.0
20201125111121 46 272 7.8 9.6 0.00 0.11 0.02 75 1019.0
20201125110122 46 271 7.8 9.6 0.00 0.11 0.02 76 1019.1
20201125105128 46 277 7.8 10.4 0.00 0.11 0.02 76 1019.0
20201125105024 46 271 8.7 10.4 0.00 0.11 0.02 76 1019.0
20201125104138 47 270 7.8 10.4 0.00 0.11 0.02 76 1019.1
20201125103123 47 270 7.8 10.4 0.00 0.11 0.02 75 1019.1
20201125103049 47 280 7.8 9.6 0.00 0.11 0.02 74 1019.1
20201125102033 47 270 6.1 7.8 0.00 0.11 0.02 75 1019.2
20201125101022 47 276 5.2 6.1 0.00 0.11 0.02 74 1019.1
20201125100122 48 270 5.2 7.0 0.00 0.11 0.02 73 1019.2
20201125100030 48 283 5.2 7.0 0.00 0.11 0.02 72 1019.2
20201125095024 48 270 5.2 7.0 0.00 0.11 0.02 71 1019.0
20201125094027 48 279 6.1 7.0 0.01 0.11 0.02 71 1019.0
20201125093121 48 270 6.1 8.7 0.01 0.11 0.02 72 1019.0
20201125093042 48 276 4.3 6.1 0.01 0.11 0.02 71 1019.0
20201125092122 49 280 6.1 7.8 0.01 0.11 0.02 71 1018.9
20201125092023 49 275 6.1 7.8 0.01 0.11 0.02 71 1019.0
20201125091040 49 270 6.1 7.0 0.01 0.11 0.02 70 1018.9
20201125090158 49 270 7.0 8.7 0.01 0.11 0.02 70 1018.8
20201125090053 49 270 8.7 11.3 0.01 0.11 0.02 69 1018.8
20201125085024 49 273 7.8 10.4 0.01 0.11 0.01 68 1018.4
20201125084922 49 280 8.7 10.4 0.00 0.10 0.01 69 1018.4
20201125083925 50 272 6.1 7.8 0.00 0.10 0.01 68 1018.6
20201125082926 50 284 9.6 11.3 0.00 0.10 0.01 68 1018.3
20201125081923 50 279 10.4 16.5 0.00 0.10 0.01 68 1018.3
20201125081825 50 285 6.1 7.8 0.00 0.10 0.01 67 1018.3
20201125080823 51 281 8.7 9.6 0.00 0.10 0.01 67 1018.0
20201125080722 51 274 8.7 10.4 0.00 0.10 0.01 67 1018.0
20201125075725 52 309 10.4 13.0 0.00 0.10 0.01 67 1018.0
20201125074724 52 317 10.4 14.8 0.00 0.10 0.01 67 1017.7
20201125073721 52 288 9.6 13.0 0.01 0.10 0.01 66 1017.4
20201125072723 53 299 13.0 16.5 0.01 0.10 0.01 67 1017.2
20201125072621 53 323 10.4 12.2 0.01 0.10 0.01 66 1017.2
20201125072523 53 307 10.4 18.2 0.01 0.10 0.01 67 1017.2
20201125072426 53 288 11.3 18.2 0.01 0.10 0.01 67 1017.3
20201125071424 54 308 8.7 13.0 0.01 0.10 0.01 67 1017.0
20201125071328 54 301 11.3 13.0 0.01 0.10 0.01 66 1016.9
20201125070322 55 304 12.2 15.6 0.01 0.10 0.01 64 1016.7
20201125065323 55 311 17.4 23.5 0.01 0.10 0.01 63 1016.5
20201125064323 56 295 13.0 20.9 0.01 0.10 0.01 64 1016.2
20201125063324 57 307 9.6 12.2 0.00 0.09 0.00 64 1015.7
20201125062324 58 300 13.0 16.5 0.01 0.09 0.00 64 1015.5
20201125061327 58 306 12.2 15.6 0.01 0.09 0.00 63 1015.0
20201125061223 59 311 13.0 16.5 0.01 0.09 0.00 64 1015.1
20201125060323 59 311 13.0 15.6 0.02 0.09 0.00 63 1014.8
20201125060221 59 310 13.0 15.6 0.02 0.09 0.00 63 1014.8
20201125060123 59 305 13.9 17.4 0.02 0.09 0.00 63 1014.6
20201125060044 59 308 14.8 19.1 0.02 0.09 0.00 62 1014.6